DAL1100 KATL-KPHL

Flight info

Callsign DAL1100
Flight time 1h 27m
Altitude 35000
Route PLMMR3 BURGG Q22 BEARI BBDOL PAATS4
Aircraft B739/M-SDE2E3FGHIRWXY/LB1

Departure

Time 2026-05-06 23:34
Airport Hartsfield Jackson Atlanta International Airport (KATL)

Arrival

Time 2026-05-07 01:01
Airport Philadelphia International Airport (KPHL)
Time Latitude Longitude Altitude Speed Heading
2026-05-06 22:59 33.63753 -84.43529 1005 ft 0 kts 301°
2026-05-06 23:21 33.63747 -84.43519 1005 ft 4 kts 302°
2026-05-06 23:21 33.63736 -84.43491 1005 ft 4 kts 276°
2026-05-06 23:22 33.63741 -84.43466 1005 ft 4 kts 214°
2026-05-06 23:22 33.63759 -84.43458 1005 ft 1 kts 180°
2026-05-06 23:22 33.63762 -84.43458 1005 ft 0 kts 180°
2026-05-06 23:25 33.63747 -84.43458 1005 ft 4 kts 180°
2026-05-06 23:26 33.63713 -84.43456 1005 ft 6 kts 173°
2026-05-06 23:26 33.63677 -84.43431 1005 ft 7 kts 129°
2026-05-06 23:26 33.63664 -84.43369 1005 ft 9 kts 91°
2026-05-06 23:26 33.63664 -84.43277 1005 ft 13 kts 90°
2026-05-06 23:27 33.63664 -84.43162 1005 ft 15 kts 90°
2026-05-06 23:27 33.63664 -84.43028 1005 ft 16 kts 90°
2026-05-06 23:27 33.63664 -84.42893 1005 ft 16 kts 90°
2026-05-06 23:27 33.63661 -84.42763 1005 ft 15 kts 97°
2026-05-06 23:28 33.63655 -84.42647 1006 ft 12 kts 90°
2026-05-06 23:28 33.63655 -84.42548 1006 ft 12 kts 90°
2026-05-06 23:28 33.63655 -84.42438 1006 ft 14 kts 90°
2026-05-06 23:28 33.63655 -84.42316 1006 ft 14 kts 90°
2026-05-06 23:29 33.63651 -84.42200 1006 ft 14 kts 105°
2026-05-06 23:29 33.63607 -84.42102 1006 ft 13 kts 120°
2026-05-06 23:29 33.63581 -84.42000 1006 ft 13 kts 90°
2026-05-06 23:29 33.63581 -84.41882 1005 ft 16 kts 90°
2026-05-06 23:30 33.63581 -84.41737 1005 ft 18 kts 90°
2026-05-06 23:30 33.63581 -84.41591 1005 ft 17 kts 90°
2026-05-06 23:30 33.63581 -84.41451 1004 ft 17 kts 90°
2026-05-06 23:30 33.63581 -84.41314 1004 ft 16 kts 90°
2026-05-06 23:31 33.63581 -84.41183 1005 ft 15 kts 90°
2026-05-06 23:31 33.63581 -84.41057 1005 ft 15 kts 90°
2026-05-06 23:31 33.63580 -84.40956 1005 ft 9 kts 92°
2026-05-06 23:31 33.63542 -84.40910 1006 ft 8 kts 171°
2026-05-06 23:32 33.63489 -84.40907 1006 ft 7 kts 186°
2026-05-06 23:32 33.63471 -84.40940 1006 ft 1 kts 270°
2026-05-06 23:32 33.63471 -84.40941 1006 ft 0 kts 270°
2026-05-06 23:32 33.63471 -84.40944 1006 ft 2 kts 270°
2026-05-06 23:33 33.63471 -84.41142 1004 ft 56 kts 270°
2026-05-06 23:33 33.63471 -84.41875 1006 ft 117 kts 270°
2026-05-06 23:33 33.63470 -84.43061 1005 ft 165 kts 270°
2026-05-06 23:33 33.63481 -84.44502 1367 ft 177 kts 268°
2026-05-06 23:34 33.63478 -84.45988 1960 ft 178 kts 268°
2026-05-06 23:34 33.63362 -84.47451 2631 ft 176 kts 248°
2026-05-06 23:34 33.62806 -84.48826 2971 ft 193 kts 240°
2026-05-06 23:34 33.62163 -84.50333 3213 ft 212 kts 242°
2026-05-06 23:35 33.61483 -84.51987 3451 ft 233 kts 242°
2026-05-06 23:35 33.60738 -84.53796 3935 ft 246 kts 243°
2026-05-06 23:35 33.59982 -84.55627 4845 ft 243 kts 242°
2026-05-06 23:35 33.58978 -84.57227 5525 ft 250 kts 219°
2026-05-06 23:36 33.57427 -84.58222 6252 ft 257 kts 201°
2026-05-06 23:36 33.55636 -84.58541 6938 ft 265 kts 186°
2026-05-06 23:36 33.53772 -84.58542 7608 ft 270 kts 184°
2026-05-06 23:36 33.51883 -84.58508 8326 ft 272 kts 185°
2026-05-06 23:37 33.49979 -84.58479 9052 ft 276 kts 183°
2026-05-06 23:37 33.48070 -84.57927 9695 ft 294 kts 158°
2026-05-06 23:37 33.46467 -84.56312 10284 ft 314 kts 131°
2026-05-06 23:37 33.45551 -84.53857 10463 ft 346 kts 102°
2026-05-06 23:38 33.45435 -84.50881 10633 ft 369 kts 91°
2026-05-06 23:38 33.45524 -84.47727 10787 ft 389 kts 90°
2026-05-06 23:38 33.45608 -84.44432 11144 ft 400 kts 91°
2026-05-06 23:38 33.45631 -84.41080 11727 ft 403 kts 92°
2026-05-06 23:39 33.45621 -84.37712 12338 ft 406 kts 92°
2026-05-06 23:39 33.46013 -84.34342 12856 ft 415 kts 70°
2026-05-06 23:39 33.47380 -84.31323 13386 ft 417 kts 49°
2026-05-06 23:39 33.49365 -84.28791 13947 ft 417 kts 43°
2026-05-06 23:40 33.51431 -84.26326 14430 ft 420 kts 42°
2026-05-06 23:40 33.53517 -84.23851 14944 ft 423 kts 41°
2026-05-06 23:40 33.55611 -84.21354 15465 ft 425 kts 41°
2026-05-06 23:40 33.57703 -84.18838 15966 ft 428 kts 41°
2026-05-06 23:41 33.59815 -84.16282 16426 ft 432 kts 41°
2026-05-06 23:41 33.61929 -84.13708 16919 ft 434 kts 41°
2026-05-06 23:41 33.63331 -84.11997 17240 ft 435 kts 41°
2026-05-06 23:41 33.66158 -84.08538 17862 ft 439 kts 41°
2026-05-06 23:42 33.68309 -84.05904 18323 ft 441 kts 40°
2026-05-06 23:42 33.69737 -84.04154 18552 ft 444 kts 40°
2026-05-06 23:42 33.71908 -84.01493 18939 ft 447 kts 40°
2026-05-06 23:42 33.74093 -83.98812 19324 ft 450 kts 40°
2026-05-06 23:43 33.76287 -83.96118 19696 ft 452 kts 40°
2026-05-06 23:43 33.78493 -83.93408 20080 ft 455 kts 40°
2026-05-06 23:43 33.80710 -83.90682 20459 ft 457 kts 40°
2026-05-06 23:43 33.82947 -83.87929 20769 ft 461 kts 40°
2026-05-06 23:44 33.85194 -83.85161 21090 ft 465 kts 40°
2026-05-06 23:44 33.87458 -83.82370 21442 ft 467 kts 39°
2026-05-06 23:44 33.89701 -83.79601 21794 ft 469 kts 39°
2026-05-06 23:44 33.91985 -83.76781 22123 ft 471 kts 39°
2026-05-06 23:45 33.94283 -83.73942 22434 ft 474 kts 39°
2026-05-06 23:45 33.96542 -83.71000 22727 ft 481 kts 44°
2026-05-06 23:45 33.98620 -83.67806 23025 ft 486 kts 48°
2026-05-06 23:45 34.00605 -83.64489 23333 ft 489 kts 49°
2026-05-06 23:46 34.02577 -83.61113 23608 ft 492 kts 49°
2026-05-06 23:46 34.04546 -83.57758 23846 ft 493 kts 49°
2026-05-06 23:46 34.06551 -83.54393 24054 ft 496 kts 49°
2026-05-06 23:46 34.08591 -83.51018 24267 ft 498 kts 48°
2026-05-06 23:47 34.10646 -83.47646 24578 ft 497 kts 48°
2026-05-06 23:47 34.12701 -83.44287 24839 ft 497 kts 48°
2026-05-06 23:47 34.14764 -83.40917 25056 ft 499 kts 48°
2026-05-06 23:47 34.16807 -83.37577 25244 ft 502 kts 48°
2026-05-06 23:48 34.18881 -83.34179 25445 ft 503 kts 48°
2026-05-06 23:48 34.20961 -83.30764 25671 ft 505 kts 49°
2026-05-06 23:48 34.23047 -83.27334 25890 ft 506 kts 49°
2026-05-06 23:48 34.25141 -83.23886 26092 ft 508 kts 49°
2026-05-06 23:49 34.27213 -83.20472 26301 ft 509 kts 49°
2026-05-06 23:49 34.29317 -83.17003 26533 ft 511 kts 49°
2026-05-06 23:49 34.31429 -83.13520 26722 ft 513 kts 49°
2026-05-06 23:49 34.33529 -83.10077 26958 ft 513 kts 49°
2026-05-06 23:50 34.35658 -83.06601 27190 ft 514 kts 49°
2026-05-06 23:50 34.39934 -82.99623 27575 ft 517 kts 49°
2026-05-06 23:50 34.42081 -82.96112 27767 ft 519 kts 49°
2026-05-06 23:51 34.44234 -82.92584 27965 ft 520 kts 49°
2026-05-06 23:51 34.46366 -82.89084 28182 ft 522 kts 49°
2026-05-06 23:51 34.48520 -82.85544 28378 ft 523 kts 49°
2026-05-06 23:51 34.50689 -82.81974 28566 ft 525 kts 49°
2026-05-06 23:52 34.52855 -82.78407 28785 ft 526 kts 49°
2026-05-06 23:52 34.55027 -82.74825 29032 ft 526 kts 49°
2026-05-06 23:52 34.57196 -82.71244 29358 ft 525 kts 49°
2026-05-06 23:52 34.59355 -82.67676 29719 ft 523 kts 49°
2026-05-06 23:53 34.61505 -82.64119 30030 ft 522 kts 49°
2026-05-06 23:53 34.63653 -82.60565 30259 ft 522 kts 49°
2026-05-06 23:53 34.65777 -82.57049 30497 ft 523 kts 49°
2026-05-06 23:53 34.67915 -82.53484 30743 ft 523 kts 50°
2026-05-06 23:54 34.70039 -82.49885 30984 ft 523 kts 50°
2026-05-06 23:54 34.72150 -82.46275 31254 ft 522 kts 50°
2026-05-06 23:54 34.74250 -82.42674 31511 ft 522 kts 50°
2026-05-06 23:54 34.76350 -82.39071 31778 ft 523 kts 50°
2026-05-06 23:55 34.78463 -82.35450 31936 ft 525 kts 50°
2026-05-06 23:55 34.80584 -82.31817 32185 ft 526 kts 50°
2026-05-06 23:55 34.82703 -82.28186 32482 ft 526 kts 50°
2026-05-06 23:55 34.84826 -82.24544 32708 ft 525 kts 50°
2026-05-06 23:56 34.86938 -82.20919 32899 ft 525 kts 50°
2026-05-06 23:56 34.89025 -82.17333 33014 ft 526 kts 50°
2026-05-06 23:56 34.93261 -82.10045 33007 ft 525 kts 50°
2026-05-06 23:57 34.97459 -82.02802 32982 ft 522 kts 50°
2026-05-06 23:57 35.01685 -81.95503 32980 ft 530 kts 49°
2026-05-06 23:58 35.06013 -81.88147 32984 ft 535 kts 47°
2026-05-06 23:58 35.10557 -81.80889 32970 ft 540 kts 46°
2026-05-06 23:59 35.15131 -81.73622 32946 ft 543 kts 47°
2026-05-06 23:59 35.19698 -81.66266 33001 ft 544 kts 47°
2026-05-07 00:00 35.24266 -81.58852 32996 ft 546 kts 46°
2026-05-07 00:00 35.28846 -81.51402 32950 ft 548 kts 46°
2026-05-07 00:01 35.33415 -81.43959 32957 ft 549 kts 46°
2026-05-07 00:01 35.38016 -81.36450 32965 ft 550 kts 47°
2026-05-07 00:02 35.42612 -81.28932 32973 ft 550 kts 47°
2026-05-07 00:02 35.47165 -81.21469 32983 ft 551 kts 46°
2026-05-07 00:03 35.51755 -81.13930 32989 ft 551 kts 46°
2026-05-07 00:03 35.56350 -81.06366 32980 ft 552 kts 46°
2026-05-07 00:04 35.60943 -80.98797 32967 ft 552 kts 46°
2026-05-07 00:04 35.65510 -80.91264 32970 ft 552 kts 46°
2026-05-07 00:05 35.70097 -80.83678 32963 ft 551 kts 46°
2026-05-07 00:05 35.74672 -80.76094 32963 ft 550 kts 46°
2026-05-07 00:06 35.79228 -80.68525 32953 ft 549 kts 46°
2026-05-07 00:06 35.83744 -80.61006 32960 ft 548 kts 47°
2026-05-07 00:07 35.88284 -80.53430 32949 ft 548 kts 46°
2026-05-07 00:07 35.92816 -80.45851 32947 ft 548 kts 46°
2026-05-07 00:08 35.97342 -80.38268 32941 ft 549 kts 46°
2026-05-07 00:08 36.01866 -80.30654 32940 ft 549 kts 47°
2026-05-07 00:09 36.06354 -80.23071 32935 ft 550 kts 47°
2026-05-07 00:09 36.10869 -80.15428 32964 ft 550 kts 47°
2026-05-07 00:10 36.15396 -80.07750 32937 ft 551 kts 47°
2026-05-07 00:10 36.19911 -80.00084 32950 ft 550 kts 47°
2026-05-07 00:11 36.24405 -79.92476 32948 ft 550 kts 47°
2026-05-07 00:11 36.28923 -79.84816 32949 ft 550 kts 47°
2026-05-07 00:12 36.33437 -79.77140 32957 ft 550 kts 47°
2026-05-07 00:12 36.37909 -79.69512 32944 ft 549 kts 47°
2026-05-07 00:13 36.42391 -79.61848 32921 ft 548 kts 47°
2026-05-07 00:13 36.46867 -79.54180 32924 ft 547 kts 47°
2026-05-07 00:14 36.51335 -79.46508 32922 ft 547 kts 47°
2026-05-07 00:14 36.55801 -79.38823 32917 ft 547 kts 47°
2026-05-07 00:15 36.60226 -79.31190 32934 ft 547 kts 48°
2026-05-07 00:15 36.64682 -79.23486 32933 ft 547 kts 48°
2026-05-07 00:16 36.69123 -79.15792 32928 ft 547 kts 48°
2026-05-07 00:16 36.73568 -79.08071 32958 ft 547 kts 47°
2026-05-07 00:17 36.78020 -79.00324 32689 ft 553 kts 48°
2026-05-07 00:17 36.80257 -78.96423 32433 ft 552 kts 48°
2026-05-07 00:17 36.82453 -78.92586 32178 ft 548 kts 49°
2026-05-07 00:18 36.84661 -78.88713 31934 ft 545 kts 49°
2026-05-07 00:18 36.86856 -78.84849 31692 ft 545 kts 49°
2026-05-07 00:18 36.89043 -78.80988 31451 ft 544 kts 50°
2026-05-07 00:18 36.91227 -78.77127 31215 ft 543 kts 50°
2026-05-07 00:19 36.93402 -78.73279 30990 ft 542 kts 50°
2026-05-07 00:19 36.95575 -78.69430 30774 ft 542 kts 50°
2026-05-07 00:19 36.97751 -78.65574 30540 ft 542 kts 51°
2026-05-07 00:19 36.99925 -78.61717 30308 ft 542 kts 51°
2026-05-07 00:20 37.02074 -78.57901 30078 ft 542 kts 51°
2026-05-07 00:20 37.04248 -78.54033 29820 ft 542 kts 52°
2026-05-07 00:20 37.06413 -78.50177 29549 ft 541 kts 52°
2026-05-07 00:20 37.08582 -78.46310 29273 ft 541 kts 52°
2026-05-07 00:21 37.10742 -78.42453 29013 ft 540 kts 52°
2026-05-07 00:21 37.12902 -78.38594 28924 ft 541 kts 52°
2026-05-07 00:21 37.17243 -78.30830 28915 ft 547 kts 51°
2026-05-07 00:22 37.22163 -78.23609 28915 ft 542 kts 35°
2026-05-07 00:22 37.28098 -78.17995 28909 ft 538 kts 30°
2026-05-07 00:23 37.34173 -78.12460 28894 ft 539 kts 30°
2026-05-07 00:23 37.40217 -78.06818 28901 ft 541 kts 30°
2026-05-07 00:24 37.46248 -78.01112 28903 ft 542 kts 30°
2026-05-07 00:24 37.52248 -77.95426 28879 ft 542 kts 31°
2026-05-07 00:25 37.57294 -77.90641 28945 ft 541 kts 30°
2026-05-07 00:25 37.63283 -77.84957 28906 ft 541 kts 30°
2026-05-07 00:26 37.69313 -77.79249 28912 ft 541 kts 30°
2026-05-07 00:26 37.75342 -77.73552 28900 ft 541 kts 30°
2026-05-07 00:27 37.81363 -77.67840 28908 ft 541 kts 30°
2026-05-07 00:27 37.87333 -77.62123 28904 ft 541 kts 30°
2026-05-07 00:28 37.93350 -77.56332 28895 ft 541 kts 30°
2026-05-07 00:28 37.99334 -77.50569 28808 ft 541 kts 30°
2026-05-07 00:29 38.02311 -77.47700 28521 ft 541 kts 30°
2026-05-07 00:29 38.05296 -77.44816 28251 ft 534 kts 30°
2026-05-07 00:30 38.14237 -77.36833 27458 ft 510 kts 25°
2026-05-07 00:30 38.17192 -77.34399 27199 ft 502 kts 24°
2026-05-07 00:30 38.20080 -77.32015 26955 ft 500 kts 25°
2026-05-07 00:30 38.23000 -77.29579 26750 ft 502 kts 24°
2026-05-07 00:31 38.25914 -77.27123 26508 ft 502 kts 24°
2026-05-07 00:31 38.28821 -77.24652 26268 ft 502 kts 25°
2026-05-07 00:31 38.31722 -77.22177 26001 ft 501 kts 25°
2026-05-07 00:31 38.34617 -77.19705 25754 ft 499 kts 25°
2026-05-07 00:32 38.37491 -77.17251 25511 ft 493 kts 25°
2026-05-07 00:32 38.40203 -77.14631 25253 ft 497 kts 34°
2026-05-07 00:32 38.42672 -77.11532 25075 ft 499 kts 38°
2026-05-07 00:32 38.45065 -77.08285 24919 ft 501 kts 39°
2026-05-07 00:33 38.47439 -77.05018 24884 ft 503 kts 39°
2026-05-07 00:33 38.49834 -77.01763 24871 ft 503 kts 39°
2026-05-07 00:33 38.52255 -76.98530 24877 ft 502 kts 38°
2026-05-07 00:33 38.54685 -76.95330 24851 ft 502 kts 38°
2026-05-07 00:34 38.57115 -76.92150 24545 ft 496 kts 38°
2026-05-07 00:34 38.59477 -76.89058 24279 ft 487 kts 37°
2026-05-07 00:34 38.61823 -76.85984 24013 ft 478 kts 37°
2026-05-07 00:34 38.64139 -76.82950 23742 ft 472 kts 37°
2026-05-07 00:35 38.66425 -76.79951 23475 ft 468 kts 37°
2026-05-07 00:35 38.68695 -76.76961 23163 ft 466 kts 39°
2026-05-07 00:35 38.70625 -76.73641 22802 ft 478 kts 58°
2026-05-07 00:35 38.71765 -76.69627 22523 ft 481 kts 72°
2026-05-07 00:36 38.72614 -76.65475 22209 ft 480 kts 73°
2026-05-07 00:36 38.73426 -76.61323 21900 ft 478 kts 73°
2026-05-07 00:36 38.74235 -76.57193 21595 ft 476 kts 73°
2026-05-07 00:36 38.75054 -76.53090 21292 ft 474 kts 73°
2026-05-07 00:37 38.75874 -76.49063 20977 ft 471 kts 72°
2026-05-07 00:37 38.76709 -76.45008 20684 ft 468 kts 72°
2026-05-07 00:37 38.77545 -76.40974 20388 ft 465 kts 72°
2026-05-07 00:37 38.78373 -76.36981 20124 ft 462 kts 72°
2026-05-07 00:38 38.79195 -76.33011 19838 ft 458 kts 72°
2026-05-07 00:38 38.80008 -76.29075 19551 ft 455 kts 72°
2026-05-07 00:38 38.80814 -76.25157 19266 ft 452 kts 73°
2026-05-07 00:38 38.81611 -76.21278 18985 ft 449 kts 73°
2026-05-07 00:39 38.82393 -76.17461 18714 ft 445 kts 73°
2026-05-07 00:39 38.83176 -76.13631 18425 ft 442 kts 73°
2026-05-07 00:39 38.83958 -76.09806 18145 ft 440 kts 73°
2026-05-07 00:39 38.84729 -76.06024 17834 ft 437 kts 73°
2026-05-07 00:40 38.85488 -76.02294 17530 ft 434 kts 73°
2026-05-07 00:40 38.86246 -75.98552 17144 ft 434 kts 73°
2026-05-07 00:40 38.87002 -75.94804 16763 ft 432 kts 73°
2026-05-07 00:40 38.87749 -75.91089 16443 ft 426 kts 74°
2026-05-07 00:41 38.88489 -75.87436 16132 ft 421 kts 72°
2026-05-07 00:41 38.89676 -75.84069 15783 ft 409 kts 51°
2026-05-07 00:41 38.91543 -75.81411 15502 ft 394 kts 33°
2026-05-07 00:41 38.93721 -75.79326 15244 ft 387 kts 30°
2026-05-07 00:42 38.95926 -75.77321 14927 ft 389 kts 30°
2026-05-07 00:42 38.98115 -75.75325 14631 ft 391 kts 30°
2026-05-07 00:42 39.00327 -75.73269 14324 ft 392 kts 31°
2026-05-07 00:42 39.02518 -75.71204 14018 ft 390 kts 31°
2026-05-07 00:43 39.04715 -75.69141 13717 ft 388 kts 29°
2026-05-07 00:43 39.07112 -75.67729 13358 ft 374 kts
2026-05-07 00:43 39.09646 -75.67270 13094 ft 364 kts 358°
2026-05-07 00:43 39.12171 -75.67019 12794 ft 362 kts 357°
2026-05-07 00:44 39.14687 -75.66796 12525 ft 360 kts 357°
2026-05-07 00:44 39.17157 -75.66566 12242 ft 360 kts 358°
2026-05-07 00:44 39.19651 -75.66315 11962 ft 359 kts 358°
2026-05-07 00:44 39.22124 -75.66050 11677 ft 353 kts 358°
2026-05-07 00:45 39.24543 -75.65782 11398 ft 342 kts 358°
2026-05-07 00:45 39.26877 -75.65520 11133 ft 330 kts 359°
2026-05-07 00:45 39.29055 -75.64797 11001 ft 327 kts 22°
2026-05-07 00:45 39.31002 -75.63227 11007 ft 330 kts 30°
2026-05-07 00:46 39.32889 -75.61536 11009 ft 330 kts 30°
2026-05-07 00:46 39.34789 -75.59844 11011 ft 331 kts 30°
2026-05-07 00:46 39.36705 -75.58159 11021 ft 331 kts 29°
2026-05-07 00:46 39.38491 -75.56314 10998 ft 338 kts 47°
2026-05-07 00:47 39.39686 -75.53698 11020 ft 339 kts 67°
2026-05-07 00:47 39.40545 -75.50860 11009 ft 339 kts 69°
2026-05-07 00:47 39.41369 -75.47996 11004 ft 339 kts 69°
2026-05-07 00:47 39.42194 -75.45134 11001 ft 339 kts 69°
2026-05-07 00:48 39.43031 -75.42275 11012 ft 339 kts 69°
2026-05-07 00:48 39.43878 -75.39424 10995 ft 340 kts 69°
2026-05-07 00:48 39.44730 -75.36572 11005 ft 340 kts 69°
2026-05-07 00:48 39.45575 -75.33746 11013 ft 342 kts 68°
2026-05-07 00:49 39.46701 -75.31054 10990 ft 339 kts 45°
2026-05-07 00:49 39.48449 -75.29087 11018 ft 332 kts 29°
2026-05-07 00:49 39.50378 -75.27425 11009 ft 332 kts 27°
2026-05-07 00:49 39.52328 -75.25807 11004 ft 332 kts 27°
2026-05-07 00:50 39.54269 -75.24198 10792 ft 334 kts 27°
2026-05-07 00:50 39.56199 -75.22581 10483 ft 326 kts 28°
2026-05-07 00:50 39.58072 -75.20995 10161 ft 318 kts 28°
2026-05-07 00:50 39.59907 -75.19433 9846 ft 312 kts 28°
2026-05-07 00:51 39.61716 -75.17890 9528 ft 310 kts 28°
2026-05-07 00:51 39.63518 -75.16351 9191 ft 307 kts 28°
2026-05-07 00:51 39.65266 -75.14853 8845 ft 301 kts 28°
2026-05-07 00:51 39.66991 -75.13374 8509 ft 295 kts 28°
2026-05-07 00:52 39.68687 -75.11918 8178 ft 289 kts 28°
2026-05-07 00:52 39.70355 -75.10486 7843 ft 283 kts 28°
2026-05-07 00:52 39.71982 -75.09088 7535 ft 277 kts 28°
2026-05-07 00:52 39.73529 -75.07617 7257 ft 275 kts 39°
2026-05-07 00:53 39.74839 -75.05824 6960 ft 271 kts 44°
2026-05-07 00:53 39.76052 -75.04014 6645 ft 266 kts 44°
2026-05-07 00:53 39.77262 -75.02215 6332 ft 262 kts 44°
2026-05-07 00:53 39.78463 -75.00463 6006 ft 257 kts 43°
2026-05-07 00:54 39.79658 -74.98745 5672 ft 253 kts 43°
2026-05-07 00:54 39.80914 -74.97212 5355 ft 241 kts 24°
2026-05-07 00:54 39.82385 -74.96302 5125 ft 230 kts 18°
2026-05-07 00:54 39.83822 -74.95452 4838 ft 224 kts 18°
2026-05-07 00:55 39.85209 -74.94629 4562 ft 219 kts 18°
2026-05-07 00:55 39.86619 -74.94050 4238 ft 206 kts 354°
2026-05-07 00:55 39.88020 -74.94195 4003 ft 202 kts 347°
2026-05-07 00:55 39.89422 -74.94430 3727 ft 201 kts 335°
2026-05-07 00:56 39.90509 -74.95411 3426 ft 186 kts 297°
2026-05-07 00:56 39.91038 -74.96881 3180 ft 181 kts 288°
2026-05-07 00:56 39.91535 -74.98376 3044 ft 174 kts 288°
2026-05-07 00:56 39.91956 -74.99807 2993 ft 168 kts 273°
2026-05-07 00:57 39.91726 -75.01233 3024 ft 163 kts 248°
2026-05-07 00:57 39.91446 -75.02698 2976 ft 169 kts 258°
2026-05-07 00:57 39.91170 -75.04208 2761 ft 172 kts 253°
2026-05-07 00:57 39.90860 -75.05683 2535 ft 163 kts 253°
2026-05-07 00:58 39.90578 -75.07058 2337 ft 149 kts 254°
2026-05-07 00:58 39.90326 -75.08302 2159 ft 141 kts 255°
2026-05-07 00:58 39.90080 -75.09525 1966 ft 139 kts 254°
2026-05-07 00:58 39.89834 -75.10746 1794 ft 139 kts 254°
2026-05-07 00:59 39.89351 -75.13154 1424 ft 139 kts 254°
2026-05-07 00:59 39.89107 -75.14370 1232 ft 140 kts 254°
2026-05-07 00:59 39.88858 -75.15610 1057 ft 143 kts 254°
2026-05-07 01:00 39.88607 -75.16879 872 ft 146 kts 254°
2026-05-07 01:00 39.88346 -75.18169 689 ft 148 kts 254°
2026-05-07 01:00 39.88085 -75.19474 517 ft 150 kts 253°
2026-05-07 01:00 39.87821 -75.20802 310 ft 153 kts 253°
2026-05-07 01:01 39.87553 -75.22135 99 ft 150 kts 253°
2026-05-07 01:01 39.87308 -75.23370 25 ft 128 kts 255°
2026-05-07 01:01 39.87137 -75.24222 24 ft 67 kts 255°
2026-05-07 01:01 39.87068 -75.24567 26 ft 25 kts 256°
2026-05-07 01:02 39.87037 -75.24738 27 ft 15 kts 266°
2026-05-07 01:02 39.87084 -75.24823 24 ft 10 kts 342°
2026-05-07 01:02 39.87137 -75.24780 26 ft 10 kts 68°
2026-05-07 01:02 39.87157 -75.24691 24 ft 11 kts 75°
2026-05-07 01:03 39.87179 -75.24584 27 ft 14 kts 75°
2026-05-07 01:03 39.87204 -75.24457 26 ft 16 kts 75°
2026-05-07 01:03 39.87232 -75.24314 27 ft 16 kts 75°
2026-05-07 01:03 39.87259 -75.24181 24 ft 15 kts 75°
2026-05-07 01:04 39.87285 -75.24052 26 ft 14 kts 75°
2026-05-07 01:04 39.87308 -75.23933 24 ft 10 kts 75°
2026-05-07 01:04 39.87341 -75.23879 26 ft 7 kts
2026-05-07 01:04 39.87386 -75.23869 26 ft 7 kts 31°
2026-05-07 01:05 39.87409 -75.23819 26 ft 7 kts 73°
2026-05-07 01:05 39.87438 -75.23789 26 ft 6 kts
2026-05-07 01:05 39.87467 -75.23791 27 ft 3 kts 353°
2026-05-07 01:05 39.87479 -75.23793 26 ft 1 kts 353°
2026-05-07 01:06 39.87481 -75.23793 26 ft 0 kts 353°